Погода в Некрасовском

Россия / Ярославская область     57°40′39″N   40°22′00″E
темп.,
°C
ветер,
м/с
пор.,
м/с
влажн.,
%
обл.,
%
осадки,
мм/ч
давл.,
гПа
погр.,
м
9 мая, вс
вс900:00+8вюв51295100 4.2 1003486
03:00+10ююв51195100 4.8 1002544
06:00+9юз2599100 1.5 1003299
09:00+8сз5793100 1.6 1005474
12:00+6ссз71092100 0.2 1008575
15:00+5ссз71390100 0.3 1011688
18:00+7ссз71273100 0.0 1014927
21:00+5ссз3976100 0.0 1017189
10 мая, пн
пн1000:00+3сз410815 0.0 1020206
03:00+1ссз411820 0.0 1022205
06:00+3ссз410760 0.0 1025280
09:00+9с57534 0.0 10271069
12:00+12с45420 0.0 10271559
15:00+13ссв34400 0.0 10271618
18:00+13св23530 0.0 1028450
21:00+8в11605 0.0 102910
11 мая, вт
вт1100:00+6св11650 0.0 103010
03:00+5св11675 0.0 103110
06:00+7в227037 0.0 103273
09:00+12в2357100 0.0 1032442
12:00+15в344845 0.0 1031912
15:00+17в344314 0.0 10301120
18:00+17в23572 0.0 1030137
21:00+11вюв23690 0.0 103015
12 мая, ср
ср1200:00+9в33734 0.0 103025
03:00+8в34750 0.0 103048
06:00+9всв36770 0.0 1030136
09:00+15всв566797 0.0 1029425
12:00+20в576284 0.0 1028926
15:00+22юв685831 0.0 10271389
18:00+20юв4870100 1.0 1026252
21:00+16вюв348393 1.2 102664
13 мая, чт
чт1300:00+14в378765 0.0 1026136
03:00+12вюв389088 0.0 1025132
06:00+14вюв4108777 0.0 1025272
09:00+18юв61072100 0.0 1024597
12:00+18вюв5106778 0.0 1024457
15:00+21юв7105985 0.0 10221110
18:00+19юв6136999 0.0 1021575
21:00+15юв498545 0.6 1021180